Back to catalog

STARLINK-11466

AliveCommunicationsVLEO
NORAD 62220·PAYLOAD·🇺🇸 United States

Launched Dec 5, 2024 from Vandenberg Space Force Base

Loading…

Next Passes (next 24 hours)

TLE

FreshSource: CelesTrak SupGP

Epoch: Sep 14, 2026, 22:50 UTC

1 62220C 24231C   26257.95187500  .00045661  00000+0  37625-3 0  2575
2 62220  53.1570 248.4504 0001160  70.2674 332.6749 15.69678362    14

Track STARLINK-11466 in real time with AllMySat

Download on the App Store